Hourly Data Report for September 10, 2020

GIMLI CLIMATE
MANITOBA
Current Station Operator: ECCC - MSC

50°38'00.000" N
97°03'00.000" W
230.10 m
5031042
71748
PGH

Download Data

Hourly Data (September 2020)
Hourly Data Report for September 10, 2020
TIME Temp Definition
°C
Dew Point Definition
°C
Rel Hum Definition
%
Wind Dir Definition
10's deg

Wind Spd Definition
km/h
Visibility Definition
km
Stn Press Definition
kPa
Hmdx Definition


Wind Chill Definition


Weather Definition


00:00 8.0 -0.6 55 19 18   99.44     LegendNANA
01:00 8.9 -0.5 52 19 16   99.41     LegendNANA
02:00 9.7 -0.7 48 20 20   99.36     LegendNANA
03:00 9.9 -0.2 50 20 19   99.33     LegendNANA
04:00 9.4 0.6 54 21 16   99.34     LegendNANA
05:00 9.2 1.0 56 22 16   99.36     LegendNANA
06:00 7.0 1.2 66 22 16   99.40     LegendNANA
07:00 8.0 1.9 65 23 15   99.44     LegendNANA
08:00 11.0 3.9 61 24 16   99.46     LegendNANA
09:00 14.5 5.7 55 26 12   99.49     LegendNANA
10:00 17.1 6.9 51 26 8   99.53     LegendNANA
11:00 18.9 6.3 44 24 12   99.52     LegendNANA
12:00 20.0 5.4 38 25 15   99.53     LegendNANA
13:00 21.1 5.3 36 27 18   99.52     LegendNANA
14:00 21.3 4.8 34 29 19   99.52     LegendNANA
15:00 21.5 5.2 34 31 18   99.51     LegendNANA
16:00 21.4 5.4 35 28 16   99.53     LegendNANA
17:00 20.7 4.8 35 29 13   99.53     LegendNANA
18:00 18.0 8.4 53 3 7   99.55     LegendNANA
19:00 14.6 11.1 79 4 9   99.55     LegendNANA
20:00 13.8 10.1 78 5 9   99.59     LegendNANA
21:00 12.7 9.3 80 4 11   99.58     LegendNANA
22:00 12.4 10.0 85 4 10   99.56     LegendNANA
23:00 12.9 8.6 75 6 9   99.58     LegendNANA

Notes on Data Quality.

Legend

  • E = Estimated
  • M = Missing
  • NA = Not Available*
  • [empty] = Indicates an unobserved value
Date modified: